Погода в Уайалле

Австралия     33°02′55″S   137°32′44″E
темп.,
°C
ветер,
м/с
пор.,
м/с
влажн.,
%
обл.,
%
осадки,
мм/ч
давл.,
гПа
погр.,
м
17 июня, чт
чт1700:30+10з511890 0.0 1015203
03:30+10з510915 0.0 1015184
06:30+10зсз48920 0.0 1016134
09:30+13з798364 0.8 1017400
12:30+17з895461 0.4 10151487
15:30+16зюз1213527 2.1 10141612
18:30+12зюз10166799 0.0 1016789
21:30+10юз101672100 0.1 1018776
18 июня, пт
пт1800:30+11юз10156263 0.1 1018999
03:30+11юз12176624 0.2 10181009
06:30+11ююз711788 0.7 1020333
09:30+14ююз911625 0.9 10231270
12:30+15ю9115338 0.1 10241574
15:30+14ю1012587 0.2 10231388
18:30+12ююз813745 0.0 1025561
21:30+12ююз610765 0.1 1027306
19 июня, сб
сб1900:30+11ююз61080100 0.1 1026311
03:30+12ююз61079100 0.2 1026513
06:30+12ю698439 0.6 1027407
09:30+13юв677437 1.1 1028707
12:30+14ююв556424 0.1 1028768
15:30+15ююв56575 0.1 1027739
18:30+12ю58747 0.0 1027191
21:30+12юв57716 0.0 1028138
20 июня, вс
вс2000:30+11ююв45694 0.0 102769
03:30+10юв44735 0.0 102748
06:30+9юв33765 0.0 102727
09:30+12ююв226317 0.0 1028262
12:30+15ююв32505 0.0 1026976
15:30+15ю435027 0.0 1025916
18:30+12ю4562100 0.0 1026117
21:30+13ю4560100 0.0 1027200
21 июня, пн
пн2100:30+13ююв346092 0.0 1026111
03:30+11в23656 0.0 102636
06:30+9ссв22645 0.0 102728
09:30+13ссв22475 0.0 1028205
12:30+15св223863 0.0 10261428
15:30+16вюв32364 0.0 10251262
18:30+13вюв33470 0.0 102631
21:30+12в335578 0.0 102630